GLD1043 SLVR-SPJC

Flight info

Callsign GLD1043
Flight time 2h 8m
Altitude 38000
Route DIBAS UM415 ASOXI
Aircraft B77W/H-SDE1E2E3FGHIJ2J3J4J5M1RWXYZ/LB1D1

Departure

Time 2026-04-25 23:26
Airport Viru Viru International Airport (SLVR)

Arrival

Time 2026-04-26 01:34
Airport Jorge Chávez International Airport (SPJC)
Time Latitude Longitude Altitude Speed Heading
2026-04-25 22:40 -17.64859 -63.13897 1236 ft 0 kts 238°
2026-04-25 23:13 -17.64859 -63.13896 1263 ft 1 kts 238°
2026-04-25 23:13 -17.64854 -63.13888 1253 ft 3 kts 226°
2026-04-25 23:13 -17.64834 -63.13870 1244 ft 4 kts 213°
2026-04-25 23:14 -17.64810 -63.13857 1252 ft 4 kts 203°
2026-04-25 23:14 -17.64799 -63.13852 1252 ft 1 kts 202°
2026-04-25 23:18 -17.64802 -63.13852 1252 ft 2 kts 197°
2026-04-25 23:18 -17.64822 -63.13845 1252 ft 4 kts 148°
2026-04-25 23:18 -17.64831 -63.13836 1252 ft 3 kts 139°
2026-04-25 23:18 -17.64858 -63.13812 1248 ft 7 kts 137°
2026-04-25 23:19 -17.64882 -63.13763 1247 ft 8 kts 95°
2026-04-25 23:19 -17.64860 -63.13706 1249 ft 9 kts 59°
2026-04-25 23:19 -17.64821 -63.13644 1248 ft 11 kts 54°
2026-04-25 23:19 -17.64791 -63.13586 1249 ft 8 kts 80°
2026-04-25 23:20 -17.64825 -63.13533 1253 ft 11 kts 147°
2026-04-25 23:20 -17.64889 -63.13493 1249 ft 11 kts 150°
2026-04-25 23:20 -17.64960 -63.13447 1253 ft 14 kts 148°
2026-04-25 23:20 -17.65049 -63.13387 1248 ft 16 kts 146°
2026-04-25 23:21 -17.65125 -63.13335 1250 ft 10 kts 147°
2026-04-25 23:21 -17.65186 -63.13294 1249 ft 10 kts 147°
2026-04-25 23:21 -17.65247 -63.13253 1253 ft 10 kts 147°
2026-04-25 23:21 -17.65305 -63.13214 1244 ft 10 kts 147°
2026-04-25 23:22 -17.65362 -63.13176 1248 ft 10 kts 147°
2026-04-25 23:22 -17.65420 -63.13138 1253 ft 10 kts 147°
2026-04-25 23:22 -17.65476 -63.13100 1253 ft 10 kts 147°
2026-04-25 23:23 -17.65591 -63.13023 1250 ft 10 kts 147°
2026-04-25 23:23 -17.65650 -63.12983 1246 ft 11 kts 147°
2026-04-25 23:23 -17.65715 -63.12940 1253 ft 11 kts 147°
2026-04-25 23:23 -17.65779 -63.12897 1249 ft 10 kts 147°
2026-04-25 23:24 -17.65839 -63.12855 1241 ft 10 kts 146°
2026-04-25 23:24 -17.65876 -63.12800 1247 ft 9 kts 99°
2026-04-25 23:24 -17.65859 -63.12749 1244 ft 7 kts 59°
2026-04-25 23:24 -17.65834 -63.12706 1251 ft 7 kts 57°
2026-04-25 23:25 -17.65805 -63.12666 1251 ft 8 kts 38°
2026-04-25 23:25 -17.65769 -63.12669 1254 ft 0 kts 328°
2026-04-25 23:25 -17.65715 -63.12706 1249 ft 34 kts 327°
2026-04-25 23:25 -17.65264 -63.13011 1252 ft 118 kts 327°
2026-04-25 23:26 -17.64370 -63.13611 1262 ft 182 kts 327°
2026-04-25 23:26 -17.63279 -63.14364 1799 ft 189 kts 327°
2026-04-25 23:26 -17.62213 -63.15105 2805 ft 178 kts 325°
2026-04-25 23:26 -17.61203 -63.15858 3548 ft 185 kts 322°
2026-04-25 23:27 -17.60142 -63.16813 3819 ft 216 kts 318°
2026-04-25 23:27 -17.58982 -63.17959 4333 ft 235 kts 317°
2026-04-25 23:27 -17.57808 -63.19191 5132 ft 241 kts 315°
2026-04-25 23:27 -17.56670 -63.20495 6076 ft 243 kts 312°
2026-04-25 23:28 -17.55616 -63.21864 6905 ft 245 kts 308°
2026-04-25 23:28 -17.54625 -63.23354 7656 ft 254 kts 304°
2026-04-25 23:28 -17.53661 -63.24958 8339 ft 265 kts 303°
2026-04-25 23:28 -17.52681 -63.26629 9167 ft 271 kts 303°
2026-04-25 23:29 -17.51692 -63.28325 10027 ft 274 kts 303°
2026-04-25 23:29 -17.50670 -63.30073 10504 ft 294 kts 302°
2026-04-25 23:29 -17.49547 -63.31994 10718 ft 323 kts 302°
2026-04-25 23:29 -17.48323 -63.34085 11017 ft 347 kts 302°
2026-04-25 23:30 -17.47056 -63.36249 11706 ft 358 kts 302°
2026-04-25 23:30 -17.45740 -63.38495 12567 ft 365 kts 302°
2026-04-25 23:30 -17.44397 -63.40785 13513 ft 371 kts 301°
2026-04-25 23:30 -17.43032 -63.43110 14329 ft 378 kts 301°
2026-04-25 23:31 -17.41645 -63.45472 15120 ft 384 kts 301°
2026-04-25 23:31 -17.40233 -63.47875 15912 ft 390 kts 301°
2026-04-25 23:31 -17.38801 -63.50312 16714 ft 396 kts 301°
2026-04-25 23:31 -17.37344 -63.52789 17497 ft 402 kts 301°
2026-04-25 23:32 -17.35867 -63.55299 18251 ft 408 kts 301°
2026-04-25 23:32 -17.34468 -63.57858 18832 ft 412 kts 294°
2026-04-25 23:32 -17.33735 -63.60769 19412 ft 413 kts 277°
2026-04-25 23:32 -17.33401 -63.63803 19964 ft 422 kts 277°
2026-04-25 23:33 -17.33040 -63.66872 20659 ft 426 kts 278°
2026-04-25 23:33 -17.32655 -63.69964 21396 ft 430 kts 278°
2026-04-25 23:33 -17.32253 -63.73084 22082 ft 434 kts 278°
2026-04-25 23:33 -17.31841 -63.76205 22748 ft 439 kts 279°
2026-04-25 23:34 -17.31416 -63.79380 23411 ft 444 kts 279°
2026-04-25 23:34 -17.30982 -63.82604 23964 ft 448 kts 279°
2026-04-25 23:34 -17.30544 -63.85848 24509 ft 452 kts 279°
2026-04-25 23:34 -17.30102 -63.89120 25069 ft 456 kts 279°
2026-04-25 23:35 -17.29655 -63.92427 25612 ft 460 kts 279°
2026-04-25 23:35 -17.29205 -63.95759 26096 ft 465 kts 279°
2026-04-25 23:35 -17.28748 -63.99134 26603 ft 470 kts 279°
2026-04-25 23:35 -17.28284 -64.02553 27112 ft 475 kts 279°
2026-04-25 23:36 -17.27819 -64.05984 27641 ft 478 kts 279°
2026-04-25 23:36 -17.27508 -64.08275 27992 ft 481 kts 279°
2026-04-25 23:36 -17.26882 -64.12880 28685 ft 485 kts 279°
2026-04-25 23:36 -17.26403 -64.16396 29148 ft 490 kts 279°
2026-04-25 23:37 -17.25920 -64.19937 29603 ft 494 kts 279°
2026-04-25 23:37 -17.25432 -64.23507 30053 ft 498 kts 279°
2026-04-25 23:37 -17.24939 -64.27116 30431 ft 501 kts 279°
2026-04-25 23:37 -17.24444 -64.30735 30832 ft 503 kts 279°
2026-04-25 23:38 -17.23946 -64.34370 31271 ft 503 kts 279°
2026-04-25 23:38 -17.23450 -64.37985 31830 ft 501 kts 279°
2026-04-25 23:38 -17.22961 -64.41548 32407 ft 497 kts 279°
2026-04-25 23:38 -17.22470 -64.45116 33008 ft 494 kts 279°
2026-04-25 23:39 -17.21944 -64.48664 33593 ft 491 kts 282°
2026-04-25 23:39 -17.21123 -64.52137 34059 ft 490 kts 287°
2026-04-25 23:39 -17.20090 -64.55523 34504 ft 488 kts 289°
2026-04-25 23:39 -17.18974 -64.58876 34952 ft 487 kts 290°
2026-04-25 23:40 -17.17854 -64.62212 35396 ft 485 kts 290°
2026-04-25 23:40 -17.16760 -64.65541 35850 ft 484 kts 289°
2026-04-25 23:40 -17.15696 -64.68877 36273 ft 482 kts 289°
2026-04-25 23:40 -17.14674 -64.72163 36651 ft 481 kts 289°
2026-04-25 23:41 -17.13654 -64.75489 37077 ft 480 kts 288°
2026-04-25 23:41 -17.12638 -64.78825 37490 ft 479 kts 288°
2026-04-25 23:41 -17.11630 -64.82142 37880 ft 478 kts 288°
2026-04-25 23:42 -17.09607 -64.88785 37975 ft 483 kts 288°
2026-04-25 23:42 -17.07573 -64.95439 37954 ft 477 kts 289°
2026-04-25 23:43 -17.05553 -65.02028 37955 ft 474 kts 289°
2026-04-25 23:43 -17.03545 -65.08572 37966 ft 472 kts 289°
2026-04-25 23:44 -17.01872 -65.14017 37986 ft 472 kts 289°
2026-04-25 23:44 -16.99858 -65.20563 37981 ft 473 kts 289°
2026-04-25 23:45 -16.97509 -65.28190 38000 ft 474 kts 289°
2026-04-25 23:45 -16.95823 -65.33656 38006 ft 475 kts 289°
2026-04-25 23:46 -16.93461 -65.41309 38025 ft 476 kts 289°
2026-04-25 23:46 -16.91755 -65.46827 38024 ft 476 kts 289°
2026-04-25 23:47 -16.89731 -65.53368 38057 ft 476 kts 289°
2026-04-25 23:47 -16.87690 -65.59955 38010 ft 476 kts 289°
2026-04-25 23:48 -16.85650 -65.66531 38066 ft 476 kts 289°
2026-04-25 23:48 -16.83610 -65.73101 38055 ft 475 kts 289°
2026-04-25 23:49 -16.81601 -65.79653 38106 ft 475 kts 289°
2026-04-25 23:49 -16.79613 -65.86246 38108 ft 475 kts 289°
2026-04-25 23:50 -16.77638 -65.92783 38110 ft 474 kts 289°
2026-04-25 23:50 -16.75648 -65.99344 38103 ft 474 kts 289°
2026-04-25 23:51 -16.73653 -66.05908 38159 ft 473 kts 289°
2026-04-25 23:51 -16.71669 -66.12423 38185 ft 473 kts 289°
2026-04-25 23:52 -16.69678 -66.18960 38143 ft 472 kts 289°
2026-04-25 23:52 -16.67683 -66.25503 38188 ft 473 kts 289°
2026-04-25 23:53 -16.65686 -66.32045 38176 ft 474 kts 289°
2026-04-25 23:53 -16.63685 -66.38597 38194 ft 474 kts 289°
2026-04-25 23:54 -16.61706 -66.45118 38200 ft 475 kts 289°
2026-04-25 23:54 -16.59710 -66.51700 38152 ft 475 kts 289°
2026-04-25 23:55 -16.57713 -66.58271 38158 ft 476 kts 289°
2026-04-25 23:55 -16.55718 -66.64828 38175 ft 476 kts 289°
2026-04-25 23:56 -16.53707 -66.71423 38160 ft 477 kts 289°
2026-04-25 23:56 -16.51695 -66.78014 38162 ft 477 kts 289°
2026-04-25 23:57 -16.49689 -66.84583 38133 ft 477 kts 289°
2026-04-25 23:57 -16.47669 -66.91186 38127 ft 477 kts 289°
2026-04-25 23:58 -16.45653 -66.97767 38135 ft 477 kts 289°
2026-04-25 23:58 -16.43635 -67.04345 38119 ft 477 kts 289°
2026-04-25 23:59 -16.41616 -67.10922 38085 ft 477 kts 289°
2026-04-25 23:59 -16.39608 -67.17454 38093 ft 476 kts 289°
2026-04-26 00:00 -16.37579 -67.24045 38084 ft 476 kts 289°
2026-04-26 00:00 -16.35568 -67.30572 38089 ft 476 kts 289°
2026-04-26 00:01 -16.33538 -67.37156 38093 ft 476 kts 289°
2026-04-26 00:01 -16.31505 -67.43733 38067 ft 477 kts 289°
2026-04-26 00:02 -16.29466 -67.50325 38069 ft 478 kts 289°
2026-04-26 00:02 -16.27436 -67.56881 38084 ft 479 kts 289°
2026-04-26 00:03 -16.25392 -67.63479 38077 ft 479 kts 289°
2026-04-26 00:03 -16.23343 -67.70079 38103 ft 478 kts 289°
2026-04-26 00:04 -16.21316 -67.76683 38075 ft 478 kts 289°
2026-04-26 00:04 -16.19313 -67.83249 38097 ft 478 kts 289°
2026-04-26 00:05 -16.17298 -67.89846 38103 ft 478 kts 289°
2026-04-26 00:05 -16.15277 -67.96442 38126 ft 478 kts 289°
2026-04-26 00:06 -16.13247 -68.03057 38107 ft 479 kts 289°
2026-04-26 00:06 -16.11232 -68.09616 38110 ft 479 kts 289°
2026-04-26 00:07 -16.09200 -68.16226 38098 ft 479 kts 289°
2026-04-26 00:07 -16.07167 -68.22833 38142 ft 479 kts 289°
2026-04-26 00:08 -16.05154 -68.29445 38146 ft 480 kts 289°
2026-04-26 00:08 -16.03154 -68.36024 38149 ft 480 kts 289°
2026-04-26 00:09 -16.01131 -68.42658 38153 ft 480 kts 289°
2026-04-26 00:09 -15.99113 -68.49279 38158 ft 480 kts 289°
2026-04-26 00:10 -15.97115 -68.55858 38154 ft 480 kts 289°
2026-04-26 00:10 -15.95099 -68.62489 38152 ft 480 kts 289°
2026-04-26 00:11 -15.93083 -68.69109 38159 ft 480 kts 289°
2026-04-26 00:11 -15.91064 -68.75730 38141 ft 480 kts 289°
2026-04-26 00:12 -15.89042 -68.82354 38149 ft 480 kts 289°
2026-04-26 00:12 -15.87020 -68.88968 38130 ft 481 kts 289°
2026-04-26 00:13 -15.85005 -68.95554 38131 ft 481 kts 289°
2026-04-26 00:13 -15.82973 -69.02187 38126 ft 482 kts 289°
2026-04-26 00:14 -15.80934 -69.08833 38131 ft 482 kts 289°
2026-04-26 00:14 -15.78898 -69.15465 38129 ft 482 kts 289°
2026-04-26 00:15 -15.76871 -69.22058 38122 ft 483 kts 289°
2026-04-26 00:15 -15.74821 -69.28718 38116 ft 483 kts 289°
2026-04-26 00:16 -15.72768 -69.35382 38141 ft 484 kts 289°
2026-04-26 00:16 -15.70687 -69.42030 38127 ft 484 kts 289°
2026-04-26 00:17 -15.68533 -69.48620 38133 ft 484 kts 290°
2026-04-26 00:17 -15.66359 -69.55251 38113 ft 485 kts 290°
2026-04-26 00:18 -15.64196 -69.61889 38120 ft 485 kts 290°
2026-04-26 00:18 -15.62047 -69.68492 38119 ft 485 kts 290°
2026-04-26 00:19 -15.59875 -69.75157 38126 ft 486 kts 290°
2026-04-26 00:19 -15.57720 -69.81757 38128 ft 486 kts 290°
2026-04-26 00:20 -15.55546 -69.88408 38124 ft 486 kts 289°
2026-04-26 00:20 -15.53371 -69.95056 38141 ft 487 kts 289°
2026-04-26 00:21 -15.51195 -70.01701 38133 ft 486 kts 289°
2026-04-26 00:21 -15.49017 -70.08343 38148 ft 486 kts 289°
2026-04-26 00:22 -15.46831 -70.14979 38539 ft 486 kts 290°
2026-04-26 00:22 -15.44329 -70.21441 38541 ft 485 kts 293°
2026-04-26 00:23 -15.41693 -70.27892 38483 ft 486 kts 294°
2026-04-26 00:23 -15.39067 -70.34342 38187 ft 486 kts 293°
2026-04-26 00:24 -15.36471 -70.40777 38181 ft 486 kts 293°
2026-04-26 00:24 -15.33861 -70.47259 38213 ft 486 kts 293°
2026-04-26 00:25 -15.31251 -70.53738 38186 ft 486 kts 293°
2026-04-26 00:25 -15.28641 -70.60204 38186 ft 486 kts 293°
2026-04-26 00:26 -15.26044 -70.66632 38215 ft 486 kts 293°
2026-04-26 00:26 -15.23426 -70.73106 38217 ft 486 kts 293°
2026-04-26 00:27 -15.20809 -70.79571 38201 ft 486 kts 293°
2026-04-26 00:27 -15.18209 -70.85987 38202 ft 486 kts 293°
2026-04-26 00:28 -15.15594 -70.92437 38227 ft 485 kts 293°
2026-04-26 00:28 -15.12975 -70.98889 38221 ft 486 kts 293°
2026-04-26 00:29 -15.10352 -71.05346 38224 ft 486 kts 293°
2026-04-26 00:29 -15.07730 -71.11800 38196 ft 486 kts 293°
2026-04-26 00:30 -15.05122 -71.18223 38206 ft 487 kts 293°
2026-04-26 00:30 -15.02497 -71.24681 38205 ft 487 kts 293°
2026-04-26 00:31 -14.99868 -71.31144 38212 ft 487 kts 293°
2026-04-26 00:31 -14.97233 -71.37614 38184 ft 487 kts 293°
2026-04-26 00:32 -14.95043 -71.42987 38179 ft 487 kts 293°
2026-04-26 00:32 -14.90665 -71.53717 38187 ft 487 kts 293°
2026-04-26 00:33 -14.88473 -71.59083 38206 ft 487 kts 293°
2026-04-26 00:33 -14.85838 -71.65529 38182 ft 487 kts 294°
2026-04-26 00:34 -14.83196 -71.71986 38206 ft 487 kts 294°
2026-04-26 00:34 -14.80556 -71.78432 38203 ft 487 kts 294°
2026-04-26 00:35 -14.77913 -71.84875 38225 ft 487 kts 294°
2026-04-26 00:35 -14.75279 -71.91277 38193 ft 487 kts 294°
2026-04-26 00:36 -14.72628 -71.97717 38197 ft 486 kts 294°
2026-04-26 00:36 -14.69972 -72.04165 38204 ft 486 kts 294°
2026-04-26 00:37 -14.67333 -72.10568 38205 ft 486 kts 294°
2026-04-26 00:37 -14.64688 -72.16982 38166 ft 487 kts 294°
2026-04-26 00:38 -14.62030 -72.23419 38169 ft 487 kts 294°
2026-04-26 00:38 -14.59374 -72.29843 38187 ft 486 kts 294°
2026-04-26 00:39 -14.56720 -72.36260 38190 ft 486 kts 294°
2026-04-26 00:39 -14.54059 -72.42688 38205 ft 487 kts 294°
2026-04-26 00:40 -14.51397 -72.49112 38186 ft 486 kts 294°
2026-04-26 00:40 -14.48747 -72.55502 38211 ft 487 kts 294°
2026-04-26 00:41 -14.46082 -72.61923 38217 ft 487 kts 294°
2026-04-26 00:41 -14.43412 -72.68346 38235 ft 486 kts 294°
2026-04-26 00:42 -14.40743 -72.74764 38233 ft 486 kts 294°
2026-04-26 00:42 -14.38073 -72.81178 38245 ft 485 kts 294°
2026-04-26 00:43 -14.35424 -72.87538 38243 ft 484 kts 294°
2026-04-26 00:43 -14.32776 -72.93890 38257 ft 484 kts 294°
2026-04-26 00:44 -14.30098 -73.00306 38231 ft 485 kts 294°
2026-04-26 00:44 -14.27442 -73.06666 38228 ft 486 kts 294°
2026-04-26 00:45 -14.24763 -73.13072 38233 ft 487 kts 294°
2026-04-26 00:45 -14.22076 -73.19495 38228 ft 488 kts 294°
2026-04-26 00:46 -14.19385 -73.25919 38237 ft 488 kts 294°
2026-04-26 00:46 -14.16710 -73.32301 38222 ft 488 kts 294°
2026-04-26 00:47 -14.14011 -73.38736 38247 ft 489 kts 294°
2026-04-26 00:47 -14.11303 -73.45187 38240 ft 490 kts 294°
2026-04-26 00:48 -14.08591 -73.51643 38256 ft 491 kts 294°
2026-04-26 00:48 -14.05868 -73.58109 38248 ft 492 kts 294°
2026-04-26 00:49 -14.03159 -73.64535 38249 ft 492 kts 294°
2026-04-26 00:49 -14.00434 -73.70997 38266 ft 492 kts 295°
2026-04-26 00:50 -13.97703 -73.77469 38254 ft 491 kts 295°
2026-04-26 00:50 -13.94981 -73.83912 38254 ft 490 kts 295°
2026-04-26 00:51 -13.92266 -73.90335 38268 ft 488 kts 295°
2026-04-26 00:51 -13.89571 -73.96703 38277 ft 487 kts 295°
2026-04-26 00:52 -13.86866 -74.03092 38280 ft 487 kts 295°
2026-04-26 00:52 -13.84152 -74.09495 38301 ft 487 kts 295°
2026-04-26 00:53 -13.81436 -74.15899 38296 ft 487 kts 295°
2026-04-26 00:53 -13.78736 -74.22258 38326 ft 488 kts 295°
2026-04-26 00:54 -13.76009 -74.28679 38323 ft 489 kts 295°
2026-04-26 00:54 -13.73273 -74.35114 38324 ft 489 kts 295°
2026-04-26 00:55 -13.70562 -74.41488 38340 ft 490 kts 295°
2026-04-26 00:55 -13.67830 -74.47913 38339 ft 490 kts 296°
2026-04-26 00:56 -13.65099 -74.54330 38335 ft 490 kts 296°
2026-04-26 00:56 -13.62364 -74.60751 38338 ft 490 kts 296°
2026-04-26 00:57 -13.59641 -74.67142 38335 ft 490 kts 296°
2026-04-26 00:57 -13.56902 -74.73560 38359 ft 490 kts 296°
2026-04-26 00:58 -13.54175 -74.79948 38332 ft 489 kts 296°
2026-04-26 00:58 -13.51441 -74.86348 38336 ft 490 kts 296°
2026-04-26 00:59 -13.48703 -74.92753 38339 ft 489 kts 296°
2026-04-26 00:59 -13.45962 -74.99157 38354 ft 488 kts 296°
2026-04-26 01:00 -13.43224 -75.05545 38358 ft 488 kts 296°
2026-04-26 01:00 -13.40491 -75.11922 38343 ft 488 kts 296°
2026-04-26 01:01 -13.37764 -75.18281 38336 ft 489 kts 296°
2026-04-26 01:01 -13.35011 -75.24693 38300 ft 490 kts 296°
2026-04-26 01:02 -13.32258 -75.31104 38310 ft 490 kts 296°
2026-04-26 01:02 -13.29522 -75.37468 38258 ft 491 kts 296°
2026-04-26 01:03 -13.26760 -75.43886 38248 ft 491 kts 296°
2026-04-26 01:03 -13.24000 -75.50297 38207 ft 490 kts 296°
2026-04-26 01:04 -13.21248 -75.56683 38217 ft 488 kts 296°
2026-04-26 01:04 -13.18506 -75.63044 38223 ft 485 kts 296°
2026-04-26 01:05 -13.15774 -75.69374 38168 ft 485 kts 296°
2026-04-26 01:05 -13.13049 -75.75665 37817 ft 488 kts 296°
2026-04-26 01:06 -13.11668 -75.78849 37261 ft 486 kts 296°
2026-04-26 01:06 -13.10302 -75.82006 36784 ft 481 kts 296°
2026-04-26 01:06 -13.08944 -75.85144 36353 ft 476 kts 296°
2026-04-26 01:06 -13.07606 -75.88234 35904 ft 471 kts 296°
2026-04-26 01:07 -13.06279 -75.91294 35425 ft 468 kts 296°
2026-04-26 01:07 -13.04960 -75.94336 34891 ft 464 kts 296°
2026-04-26 01:07 -13.03668 -75.97311 34419 ft 462 kts 296°
2026-04-26 01:07 -13.02359 -76.00325 33920 ft 459 kts 295°
2026-04-26 01:08 -13.01061 -76.03316 33399 ft 456 kts 295°
2026-04-26 01:08 -12.99770 -76.06286 32925 ft 453 kts 295°
2026-04-26 01:08 -12.98507 -76.09193 32408 ft 450 kts 295°
2026-04-26 01:08 -12.97235 -76.12119 31982 ft 447 kts 295°
2026-04-26 01:09 -12.95965 -76.15042 31510 ft 445 kts 295°
2026-04-26 01:09 -12.94708 -76.17933 31054 ft 442 kts 295°
2026-04-26 01:09 -12.93471 -76.20775 30601 ft 440 kts 295°
2026-04-26 01:09 -12.92225 -76.23637 30087 ft 438 kts 295°
2026-04-26 01:10 -12.90982 -76.26489 29579 ft 436 kts 295°
2026-04-26 01:10 -12.89749 -76.29320 29071 ft 433 kts 295°
2026-04-26 01:10 -12.88525 -76.32131 28593 ft 430 kts 295°
2026-04-26 01:10 -12.87307 -76.34926 28123 ft 427 kts 295°
2026-04-26 01:11 -12.86113 -76.37664 27652 ft 424 kts 295°
2026-04-26 01:11 -12.84912 -76.40418 27193 ft 421 kts 295°
2026-04-26 01:11 -12.83720 -76.43151 26771 ft 419 kts 295°
2026-04-26 01:11 -12.82531 -76.45875 26312 ft 417 kts 295°
2026-04-26 01:12 -12.81342 -76.48599 25857 ft 415 kts 295°
2026-04-26 01:12 -12.80175 -76.51270 25393 ft 414 kts 295°
2026-04-26 01:12 -12.79003 -76.53955 24928 ft 412 kts 294°
2026-04-26 01:12 -12.77832 -76.56635 24481 ft 411 kts 294°
2026-04-26 01:13 -12.76661 -76.59313 24032 ft 410 kts 294°
2026-04-26 01:13 -12.75462 -76.61961 23583 ft 409 kts 297°
2026-04-26 01:13 -12.74137 -76.64536 23059 ft 408 kts 299°
2026-04-26 01:13 -12.72760 -76.67073 22571 ft 405 kts 300°
2026-04-26 01:14 -12.71418 -76.69525 22110 ft 388 kts 300°
2026-04-26 01:14 -12.70140 -76.71876 21685 ft 368 kts 299°
2026-04-26 01:14 -12.68908 -76.74166 21310 ft 367 kts 299°
2026-04-26 01:14 -12.67683 -76.76456 20909 ft 366 kts 299°
2026-04-26 01:15 -12.66465 -76.78743 20511 ft 366 kts 299°
2026-04-26 01:15 -12.65243 -76.81040 20095 ft 366 kts 299°
2026-04-26 01:15 -12.64024 -76.83332 19669 ft 366 kts 299°
2026-04-26 01:15 -12.62806 -76.85625 19244 ft 367 kts 299°
2026-04-26 01:16 -12.61600 -76.87894 18832 ft 368 kts 299°
2026-04-26 01:16 -12.60374 -76.90198 18390 ft 369 kts 299°
2026-04-26 01:16 -12.59151 -76.92498 18036 ft 361 kts 300°
2026-04-26 01:16 -12.57851 -76.94592 17853 ft 339 kts 314°
2026-04-26 01:17 -12.56041 -76.96092 17496 ft 332 kts 334°
2026-04-26 01:17 -12.53979 -76.97133 17158 ft 329 kts 335°
2026-04-26 01:17 -12.51907 -76.98141 16785 ft 330 kts 336°
2026-04-26 01:17 -12.49851 -76.99141 16408 ft 330 kts 336°
2026-04-26 01:18 -12.47775 -77.00154 16040 ft 331 kts 336°
2026-04-26 01:18 -12.45696 -77.01175 15654 ft 332 kts 335°
2026-04-26 01:18 -12.43608 -77.02205 15271 ft 332 kts 335°
2026-04-26 01:18 -12.42228 -77.02888 15020 ft 333 kts 335°
2026-04-26 01:19 -12.40136 -77.03925 14632 ft 334 kts 335°
2026-04-26 01:19 -12.38077 -77.04947 14234 ft 324 kts 334°
2026-04-26 01:19 -12.35436 -77.06259 13756 ft 317 kts 334°
2026-04-26 01:19 -12.34089 -77.06927 13475 ft 318 kts 334°
2026-04-26 01:20 -12.32094 -77.07919 13096 ft 319 kts 334°
2026-04-26 01:20 -12.29439 -77.09237 12582 ft 321 kts 334°
2026-04-26 01:20 -12.28104 -77.09900 12327 ft 321 kts 334°
2026-04-26 01:20 -12.26087 -77.10902 11962 ft 321 kts 334°
2026-04-26 01:21 -12.24123 -77.11877 11596 ft 311 kts 334°
2026-04-26 01:21 -12.22190 -77.12837 11256 ft 312 kts 334°
2026-04-26 01:21 -12.20266 -77.13792 10887 ft 306 kts 334°
2026-04-26 01:21 -12.18343 -77.14746 10545 ft 307 kts 334°
2026-04-26 01:22 -12.16412 -77.15705 10205 ft 304 kts 334°
2026-04-26 01:22 -12.14583 -77.16612 10046 ft 283 kts 334°
2026-04-26 01:22 -12.12822 -77.17485 9830 ft 280 kts 334°
2026-04-26 01:22 -12.11091 -77.18344 9707 ft 273 kts 334°
2026-04-26 01:23 -12.09419 -77.19172 9543 ft 268 kts 334°
2026-04-26 01:23 -12.07738 -77.20006 9220 ft 269 kts 334°
2026-04-26 01:23 -12.06058 -77.20839 8948 ft 267 kts 334°
2026-04-26 01:23 -12.04392 -77.21666 8669 ft 265 kts 334°
2026-04-26 01:24 -12.02730 -77.22489 8376 ft 264 kts 334°
2026-04-26 01:24 -12.01079 -77.23314 8091 ft 263 kts 333°
2026-04-26 01:24 -11.99463 -77.24155 7804 ft 262 kts 333°
2026-04-26 01:24 -11.97845 -77.25003 7555 ft 259 kts 333°
2026-04-26 01:25 -11.96242 -77.25842 7274 ft 254 kts 333°
2026-04-26 01:25 -11.94680 -77.26657 6715 ft 254 kts 333°
2026-04-26 01:25 -11.93114 -77.27473 6401 ft 255 kts 333°
2026-04-26 01:25 -11.91551 -77.28271 6197 ft 245 kts 334°
2026-04-26 01:26 -11.90034 -77.29017 5866 ft 238 kts 334°
2026-04-26 01:26 -11.88560 -77.29739 5676 ft 238 kts 334°
2026-04-26 01:26 -11.87065 -77.30472 5397 ft 237 kts 334°
2026-04-26 01:26 -11.85514 -77.30930 5088 ft 230 kts
2026-04-26 01:27 -11.84021 -77.30456 4835 ft 223 kts 36°
2026-04-26 01:27 -11.82977 -77.29359 4587 ft 216 kts 58°
2026-04-26 01:27 -11.82289 -77.28051 4519 ft 201 kts 64°
2026-04-26 01:27 -11.81693 -77.26785 4375 ft 196 kts 64°
2026-04-26 01:28 -11.81100 -77.25522 4267 ft 198 kts 64°
2026-04-26 01:28 -11.80714 -77.24189 4013 ft 196 kts 92°
2026-04-26 01:28 -11.81143 -77.22934 3827 ft 191 kts 129°
2026-04-26 01:28 -11.82148 -77.22080 3668 ft 187 kts 146°
2026-04-26 01:29 -11.83192 -77.21345 3466 ft 175 kts 145°
2026-04-26 01:29 -11.84174 -77.20645 3264 ft 170 kts 145°
2026-04-26 01:29 -11.85136 -77.19962 3082 ft 165 kts 145°
2026-04-26 01:29 -11.86105 -77.19380 2895 ft 159 kts 154°
2026-04-26 01:30 -11.87093 -77.18900 2729 ft 154 kts 154°
2026-04-26 01:30 -11.88051 -77.18432 2579 ft 150 kts 154°
2026-04-26 01:30 -11.88974 -77.17977 2441 ft 150 kts 154°
2026-04-26 01:30 -11.89910 -77.17515 2258 ft 148 kts 154°
2026-04-26 01:31 -11.90843 -77.17054 2104 ft 148 kts 155°
2026-04-26 01:31 -11.91762 -77.16599 1928 ft 146 kts 155°
2026-04-26 01:31 -11.92673 -77.16147 1800 ft 144 kts 155°
2026-04-26 01:31 -11.93580 -77.15700 1643 ft 145 kts 156°
2026-04-26 01:32 -11.94477 -77.15257 1443 ft 141 kts 156°
2026-04-26 01:32 -11.95338 -77.14829 1280 ft 138 kts 155°
2026-04-26 01:32 -11.96206 -77.14396 1096 ft 139 kts 155°
2026-04-26 01:32 -11.97082 -77.13964 910 ft 140 kts 155°
2026-04-26 01:33 -11.97953 -77.13534 716 ft 138 kts 155°
2026-04-26 01:33 -11.98818 -77.13105 515 ft 137 kts 155°
2026-04-26 01:33 -11.99677 -77.12681 317 ft 137 kts 155°
2026-04-26 01:33 -12.00525 -77.12252 160 ft 135 kts 155°
2026-04-26 01:34 -12.01372 -77.11830 87 ft 134 kts 155°
2026-04-26 01:34 -12.02119 -77.11465 70 ft 99 kts 154°
2026-04-26 01:34 -12.02553 -77.11253 96 ft 45 kts 154°
2026-04-26 01:34 -12.02735 -77.11162 105 ft 19 kts 152°
2026-04-26 01:35 -12.02822 -77.11084 105 ft 13 kts 128°
2026-04-26 01:35 -12.02875 -77.11011 106 ft 12 kts 121°
2026-04-26 01:35 -12.02911 -77.10949 106 ft 9 kts 123°
2026-04-26 01:35 -12.02945 -77.10900 106 ft 9 kts 126°
2026-04-26 01:36 -12.02977 -77.10849 106 ft 7 kts 108°
2026-04-26 01:36 -12.02950 -77.10816 104 ft 7 kts 16°
2026-04-26 01:36 -12.02889 -77.10806 102 ft 10 kts
2026-04-26 01:37 -12.02753 -77.10850 99 ft 9 kts 328°
2026-04-26 01:37 -12.02698 -77.10882 99 ft 9 kts 333°
2026-04-26 01:37 -12.02638 -77.10913 99 ft 10 kts 333°
2026-04-26 01:37 -12.02572 -77.10946 99 ft 11 kts 334°
2026-04-26 01:38 -12.02513 -77.10970 99 ft 7 kts 358°
2026-04-26 01:38 -12.02485 -77.10940 100 ft 5 kts 60°
2026-04-26 01:38 -12.02468 -77.10909 98 ft 6 kts 63°
2026-04-26 01:38 -12.02457 -77.10887 99 ft 2 kts 64°
2026-04-26 01:39 -12.02456 -77.10885 96 ft 0 kts 65°